Time,TemperatureF,DewpointF,PressureIn,WindDirection,WindDirectionDegrees,WindSpeedMPH,WindSpeedGustMPH,Humidity,HourlyPrecipIn,Conditions,Clouds,dailyrainin,SoftwareType,DateUTC
2013-11-16 00:00:00,41.2,37.0,29.63,SE,140,5.0,12.0,85,0.00,,,0.00,VWS V14.01,2013-11-16 06:00:00,
2013-11-16 00:01:00,41.2,37.0,29.63,SE,140,4.0,5.0,85,0.00,,,0.00,VWS V14.01,2013-11-16 06:01:00,
2013-11-16 00:06:00,41.1,36.9,29.63,SE,144,5.0,8.0,85,0.00,,,0.00,VWS V14.01,2013-11-16 06:06:00,
2013-11-16 00:11:00,41.2,37.0,29.62,SSE,157,3.0,9.0,85,0.00,,,0.00,VWS V14.01,2013-11-16 06:11:00,
2013-11-16 00:16:00,41.1,36.9,29.62,SE,142,5.0,9.0,85,0.00,,,0.00,VWS V14.01,2013-11-16 06:16:00,
2013-11-16 00:21:00,41.1,36.9,29.63,SSE,149,5.0,9.0,85,0.00,,,0.00,VWS V14.01,2013-11-16 06:21:00,
2013-11-16 00:26:00,41.1,36.9,29.62,SE,138,7.0,9.0,85,0.00,,,0.00,VWS V14.01,2013-11-16 06:26:00,
2013-11-16 00:30:00,41.2,37.0,29.62,South,169,6.0,9.0,85,0.00,,,0.00,VWS V14.01,2013-11-16 06:30:00,
2013-11-16 00:31:00,41.2,37.0,29.62,SSE,164,4.0,6.0,85,0.00,,,0.00,VWS V14.01,2013-11-16 06:31:00,
2013-11-16 00:36:00,41.3,36.8,29.62,South,171,2.0,8.0,84,0.00,,,0.00,VWS V14.01,2013-11-16 06:36:00,
2013-11-16 00:41:00,41.5,37.0,29.62,South,181,3.0,9.0,84,0.00,,,0.00,VWS V14.01,2013-11-16 06:41:00,
2013-11-16 00:46:00,41.7,36.9,29.62,SE,140,5.0,11.0,83,0.00,,,0.00,VWS V14.01,2013-11-16 06:46:00,
2013-11-16 00:51:00,41.7,36.9,29.62,SSE,166,9.0,11.0,83,0.00,,,0.00,VWS V14.01,2013-11-16 06:51:00,
2013-11-16 00:56:00,41.6,36.8,29.61,SSE,163,6.0,11.0,83,0.00,,,0.00,VWS V14.01,2013-11-16 06:56:00,
2013-11-16 01:00:00,41.5,36.7,29.61,SE,145,6.0,6.0,83,0.00,,,0.00,VWS V14.01,2013-11-16 07:00:00,
2013-11-16 01:05:00,41.5,36.4,29.61,SE,136,9.0,9.0,82,0.00,,,0.00,VWS V14.01,2013-11-16 07:05:00,
2013-11-16 01:10:00,41.3,36.2,29.61,SE,138,5.0,9.0,82,0.00,,,0.00,VWS V14.01,2013-11-16 07:10:00,
2013-11-16 01:15:00,41.3,36.2,29.60,SSE,159,7.0,11.0,82,0.00,,,0.00,VWS V14.01,2013-11-16 07:15:00,
2013-11-16 01:20:00,41.3,36.2,29.60,SE,146,6.0,11.0,82,0.00,,,0.00,VWS V14.01,2013-11-16 07:20:00,
2013-11-16 01:25:00,41.3,36.2,29.60,SSE,150,3.0,11.0,82,0.00,,,0.00,VWS V14.01,2013-11-16 07:25:00,
2013-11-16 01:30:00,41.3,36.2,29.60,SE,134,5.0,11.0,82,0.00,,,0.00,VWS V14.01,2013-11-16 07:30:00,
2013-11-16 01:35:00,41.1,36.0,29.59,SE,144,5.0,9.0,82,0.00,,,0.00,VWS V14.01,2013-11-16 07:35:00,
2013-11-16 01:40:00,41.0,35.9,29.59,South,177,4.0,10.0,82,0.00,,,0.00,VWS V14.01,2013-11-16 07:40:00,
2013-11-16 01:45:00,40.9,35.8,29.60,SE,138,4.0,10.0,82,0.00,,,0.00,VWS V14.01,2013-11-16 07:45:00,
2013-11-16 01:50:00,40.7,35.6,29.60,SSE,164,6.0,10.0,82,0.00,,,0.00,VWS V14.01,2013-11-16 07:50:00,
2013-11-16 01:55:00,40.5,35.5,29.59,SE,142,2.0,10.0,82,0.00,,,0.00,VWS V14.01,2013-11-16 07:55:00,
2013-11-16 02:00:00,40.5,35.8,29.59,SSE,161,2.0,4.0,83,0.00,,,0.00,VWS V14.01,2013-11-16 08:00:00,
2013-11-16 02:05:00,40.3,35.6,29.59,SE,142,6.0,11.0,83,0.00,,,0.00,VWS V14.01,2013-11-16 08:05:00,
2013-11-16 02:10:00,40.2,35.5,29.59,SSE,153,11.0,13.0,83,0.00,,,0.00,VWS V14.01,2013-11-16 08:10:00,
2013-11-16 02:15:00,40.3,35.6,29.59,SSE,151,4.0,13.0,83,0.00,,,0.00,VWS V14.01,2013-11-16 08:15:00,
2013-11-16 02:20:00,40.3,35.6,29.59,SSE,148,6.0,13.0,83,0.00,,,0.00,VWS V14.01,2013-11-16 08:20:00,
2013-11-16 02:25:00,40.1,35.4,29.58,SSE,161,2.0,13.0,83,0.00,,,0.00,VWS V14.01,2013-11-16 08:25:00,
2013-11-16 02:30:00,40.1,35.4,29.58,SE,145,6.0,6.0,83,0.00,,,0.00,VWS V14.01,2013-11-16 08:30:00,
2013-11-16 02:35:00,40.0,35.3,29.58,South,188,5.0,11.0,83,0.00,,,0.00,VWS V14.01,2013-11-16 08:35:00,
2013-11-16 02:40:00,40.0,35.3,29.58,SE,145,8.0,11.0,83,0.00,,,0.00,VWS V14.01,2013-11-16 08:40:00,
2013-11-16 02:45:00,39.9,35.2,29.58,South,179,5.0,11.0,83,0.00,,,0.00,VWS V14.01,2013-11-16 08:45:00,
2013-11-16 02:50:00,39.8,35.1,29.58,SE,130,8.0,12.0,83,0.00,,,0.00,VWS V14.01,2013-11-16 08:50:00,
2013-11-16 02:55:00,39.7,35.3,29.57,SE,137,8.0,12.0,84,0.00,,,0.00,VWS V14.01,2013-11-16 08:55:00,
2013-11-16 03:00:00,39.8,35.1,29.57,SE,143,4.0,12.0,83,0.00,,,0.00,VWS V14.01,2013-11-16 09:00:00,
2013-11-16 03:06:00,39.8,35.1,29.57,SE,140,5.0,13.0,83,0.00,,,0.00,VWS V14.01,2013-11-16 09:06:00,
2013-11-16 03:11:00,39.9,35.2,29.57,SE,127,5.0,13.0,83,0.00,,,0.00,VWS V14.01,2013-11-16 09:11:00,
2013-11-16 03:16:00,40.0,35.6,29.57,SE,139,5.0,13.0,84,0.00,,,0.00,VWS V14.01,2013-11-16 09:16:00,
2013-11-16 03:21:00,40.1,35.4,29.57,SE,145,10.0,13.0,83,0.00,,,0.00,VWS V14.01,2013-11-16 09:21:00,
2013-11-16 03:26:00,40.1,35.7,29.57,South,171,5.0,13.0,84,0.00,,,0.00,VWS V14.01,2013-11-16 09:26:00,
2013-11-16 03:30:00,40.2,35.8,29.56,SE,144,3.0,13.0,84,0.00,,,0.00,VWS V14.01,2013-11-16 09:30:00,
2013-11-16 03:31:00,40.2,35.8,29.56,South,188,4.0,6.0,84,0.00,,,0.00,VWS V14.01,2013-11-16 09:31:00,
2013-11-16 03:36:00,40.0,35.6,29.56,SE,132,9.0,11.0,84,0.00,,,0.00,VWS V14.01,2013-11-16 09:36:00,
2013-11-16 03:41:00,40.0,35.6,29.56,SSE,153,7.0,13.0,84,0.00,,,0.00,VWS V14.01,2013-11-16 09:41:00,
2013-11-16 03:46:00,39.9,35.5,29.56,SE,138,4.0,13.0,84,0.00,,,0.00,VWS V14.01,2013-11-16 09:46:00,
2013-11-16 03:51:00,39.7,35.3,29.56,SE,143,3.0,13.0,84,0.00,,,0.00,VWS V14.01,2013-11-16 09:51:00,
2013-11-16 03:56:00,39.7,35.6,29.56,SE,132,10.0,13.0,85,0.00,,,0.00,VWS V14.01,2013-11-16 09:56:00,
2013-11-16 04:00:00,39.7,35.6,29.56,South,174,2.0,13.0,85,0.00,,,0.00,VWS V14.01,2013-11-16 10:00:00,
2013-11-16 04:01:00,39.8,35.4,29.56,South,174,2.0,2.0,84,0.00,,,0.00,VWS V14.01,2013-11-16 10:01:00,
2013-11-16 04:06:00,39.6,35.5,29.55,SSE,148,1.0,8.0,85,0.00,,,0.00,VWS V14.01,2013-11-16 10:06:00,
2013-11-16 04:11:00,39.5,35.4,29.55,SSE,162,6.0,10.0,85,0.00,,,0.00,VWS V14.01,2013-11-16 10:11:00,
2013-11-16 04:16:00,39.6,35.5,29.55,SSE,164,5.0,10.0,85,0.00,,,0.00,VWS V14.01,2013-11-16 10:16:00,
2013-11-16 04:21:00,39.7,35.6,29.55,SSE,148,2.0,11.0,85,0.00,,,0.00,VWS V14.01,2013-11-16 10:21:00,
2013-11-16 04:26:00,39.7,35.6,29.55,South,169,4.0,11.0,85,0.00,,,0.00,VWS V14.01,2013-11-16 10:26:00,
2013-11-16 04:30:00,39.8,35.7,29.55,SE,142,2.0,11.0,85,0.00,,,0.00,VWS V14.01,2013-11-16 10:30:00,
2013-11-16 04:31:00,39.8,35.7,29.55,SSE,159,4.0,4.0,85,0.00,,,0.00,VWS V14.01,2013-11-16 10:31:00,
2013-11-16 04:36:00,39.8,35.7,29.55,SE,140,4.0,8.0,85,0.00,,,0.00,VWS V14.01,2013-11-16 10:36:00,
2013-11-16 04:41:00,39.8,35.7,29.55,SW,230,3.0,8.0,85,0.00,,,0.00,VWS V14.01,2013-11-16 10:41:00,
2013-11-16 04:46:00,39.7,35.9,29.55,SSE,148,1.0,8.0,86,0.00,,,0.00,VWS V14.01,2013-11-16 10:46:00,
2013-11-16 04:51:00,39.6,35.8,29.54,SE,141,1.0,8.0,86,0.00,,,0.00,VWS V14.01,2013-11-16 10:51:00,
2013-11-16 04:56:00,39.7,35.9,29.54,SE,126,3.0,8.0,86,0.00,,,0.00,VWS V14.01,2013-11-16 10:56:00,
2013-11-16 05:01:00,39.7,36.2,29.54,South,173,3.0,5.0,87,0.00,,,0.00,VWS V14.01,2013-11-16 11:01:00,
2013-11-16 05:06:00,39.8,36.0,29.54,South,183,1.0,8.0,86,0.00,,,0.00,VWS V14.01,2013-11-16 11:06:00,
2013-11-16 05:11:00,39.8,36.0,29.53,SE,133,4.0,8.0,86,0.00,,,0.00,VWS V14.01,2013-11-16 11:11:00,
2013-11-16 05:16:00,39.6,36.1,29.54,South,187,2.0,8.0,87,0.00,,,0.00,VWS V14.01,2013-11-16 11:16:00,
2013-11-16 05:21:00,39.7,36.2,29.53,South,175,2.0,8.0,87,0.00,,,0.00,VWS V14.01,2013-11-16 11:21:00,
2013-11-16 05:26:00,39.6,36.1,29.53,SSW,194,3.0,8.0,87,0.00,,,0.00,VWS V14.01,2013-11-16 11:26:00,
2013-11-16 05:30:00,39.5,36.0,29.53,SSE,148,2.0,8.0,87,0.00,,,0.00,VWS V14.01,2013-11-16 11:30:00,
2013-11-16 05:31:00,39.5,36.0,29.53,SSE,148,1.0,2.0,87,0.00,,,0.00,VWS V14.01,2013-11-16 11:31:00,
2013-11-16 05:36:00,39.4,35.9,29.53,SSE,157,3.0,5.0,87,0.00,,,0.00,VWS V14.01,2013-11-16 11:36:00,
2013-11-16 05:41:00,39.4,36.2,29.52,SSE,151,6.0,7.0,88,0.00,,,0.00,VWS V14.01,2013-11-16 11:41:00,
2013-11-16 05:46:00,39.4,36.2,29.52,SSE,159,2.0,10.0,88,0.00,,,0.00,VWS V14.01,2013-11-16 11:46:00,
2013-11-16 05:51:00,39.4,36.2,29.51,SSE,155,3.0,10.0,88,0.00,,,0.00,VWS V14.01,2013-11-16 11:51:00,
2013-11-16 05:56:00,39.3,36.0,29.51,SSE,148,5.0,10.0,88,0.00,,,0.00,VWS V14.01,2013-11-16 11:56:00,
2013-11-16 06:00:00,39.3,36.3,29.51,SSE,153,2.0,10.0,89,0.00,,,0.00,VWS V14.01,2013-11-16 12:00:00,
2013-11-16 06:01:00,39.3,36.3,29.51,SSE,153,1.0,2.0,89,0.00,,,0.00,VWS V14.01,2013-11-16 12:01:00,
2013-11-16 06:06:00,39.5,36.5,29.52,South,175,1.0,11.0,89,0.00,,,0.00,VWS V14.01,2013-11-16 12:06:00,
2013-11-16 06:11:00,39.5,36.5,29.51,SSE,161,4.0,11.0,89,0.00,,,0.00,VWS V14.01,2013-11-16 12:11:00,
2013-11-16 06:16:00,39.5,36.5,29.51,SSE,152,4.0,11.0,89,0.00,,,0.00,VWS V14.01,2013-11-16 12:16:00,
2013-11-16 06:21:00,39.5,36.5,29.51,SSE,157,1.0,11.0,89,0.00,,,0.00,VWS V14.01,2013-11-16 12:21:00,
2013-11-16 06:26:00,39.5,36.5,29.51,SE,126,2.0,11.0,89,0.00,,,0.00,VWS V14.01,2013-11-16 12:26:00,
2013-11-16 06:30:00,39.6,36.9,29.51,SSE,163,4.0,4.0,90,0.00,,,0.00,VWS V14.01,2013-11-16 12:30:00,
2013-11-16 06:35:00,39.7,37.0,29.51,SSE,161,2.0,10.0,90,0.00,,,0.00,VWS V14.01,2013-11-16 12:35:00,
2013-11-16 06:40:00,39.9,37.2,29.50,SSE,162,6.0,10.0,90,0.00,,,0.00,VWS V14.01,2013-11-16 12:40:00,
2013-11-16 06:45:00,40.0,37.3,29.50,SW,221,4.0,11.0,90,0.00,,,0.00,VWS V14.01,2013-11-16 12:45:00,
2013-11-16 06:50:00,40.1,37.4,29.50,SE,141,9.0,11.0,90,0.00,,,0.00,VWS V14.01,2013-11-16 12:50:00,
2013-11-16 06:55:00,40.2,37.5,29.50,SSE,153,3.0,11.0,90,0.00,,,0.00,VWS V14.01,2013-11-16 12:55:00,
2013-11-16 07:00:00,40.3,37.6,29.50,SSE,161,2.0,11.0,90,0.00,,,0.00,VWS V14.01,2013-11-16 13:00:00,
2013-11-16 07:05:00,40.3,37.6,29.50,SSE,153,2.0,8.0,90,0.00,,,0.00,VWS V14.01,2013-11-16 13:05:00,
2013-11-16 07:10:00,40.2,37.5,29.50,South,188,2.0,8.0,90,0.00,,,0.00,VWS V14.01,2013-11-16 13:10:00,
2013-11-16 07:15:00,40.1,37.4,29.50,SE,129,3.0,8.0,90,0.00,,,0.00,VWS V14.01,2013-11-16 13:15:00,
2013-11-16 07:20:00,40.0,37.3,29.49,SE,142,4.0,10.0,90,0.00,,,0.00,VWS V14.01,2013-11-16 13:20:00,
2013-11-16 07:25:00,40.1,37.7,29.49,SE,143,4.0,10.0,91,0.00,,,0.00,VWS V14.01,2013-11-16 13:25:00,
2013-11-16 07:30:00,40.2,37.8,29.49,SE,146,5.0,5.0,91,0.00,,,0.00,VWS V14.01,2013-11-16 13:30:00,
2013-11-16 07:35:00,40.2,37.8,29.49,SSE,155,6.0,10.0,91,0.00,,,0.00,VWS V14.01,2013-11-16 13:35:00,
2013-11-16 07:40:00,40.4,38.0,29.49,SE,136,5.0,11.0,91,0.00,,,0.00,VWS V14.01,2013-11-16 13:40:00,
2013-11-16 07:45:00,40.6,38.2,29.49,South,182,4.0,12.0,91,0.00,,,0.00,VWS V14.01,2013-11-16 13:45:00,
2013-11-16 07:50:00,41.0,38.6,29.49,South,184,3.0,13.0,91,0.00,,,0.00,VWS V14.01,2013-11-16 13:50:00,
2013-11-16 07:55:00,41.4,39.0,29.50,SSW,202,2.0,13.0,91,0.00,,,0.00,VWS V14.01,2013-11-16 13:55:00,
2013-11-16 08:00:00,41.7,39.0,29.50,South,180,1.0,2.0,90,0.00,,,0.00,VWS V14.01,2013-11-16 14:00:00,
2013-11-16 08:05:00,41.9,39.2,29.50,South,171,5.0,10.0,90,0.00,,,0.00,VWS V14.01,2013-11-16 14:05:00,
2013-11-16 08:10:00,42.0,39.3,29.50,SE,137,4.0,10.0,90,0.00,,,0.00,VWS V14.01,2013-11-16 14:10:00,
2013-11-16 08:15:00,42.1,39.4,29.50,SSW,197,4.0,12.0,90,0.00,,,0.00,VWS V14.01,2013-11-16 14:15:00,
2013-11-16 08:20:00,42.2,39.5,29.50,SE,145,11.0,12.0,90,0.00,,,0.00,VWS V14.01,2013-11-16 14:20:00,
2013-11-16 08:25:00,42.3,39.6,29.49,SSE,161,9.0,13.0,90,0.00,,,0.00,VWS V14.01,2013-11-16 14:25:00,
2013-11-16 08:30:00,42.4,39.7,29.49,South,182,3.0,3.0,90,0.00,,,0.00,VWS V14.01,2013-11-16 14:30:00,
2013-11-16 08:35:00,42.6,39.6,29.49,SE,126,9.0,14.0,89,0.00,,,0.00,VWS V14.01,2013-11-16 14:35:00,
2013-11-16 08:40:00,42.7,39.7,29.49,SE,136,12.0,14.0,89,0.00,,,0.00,VWS V14.01,2013-11-16 14:40:00,
2013-11-16 08:45:00,42.8,40.1,29.49,SSE,154,6.0,14.0,90,0.00,,,0.00,VWS V14.01,2013-11-16 14:45:00,
2013-11-16 08:50:00,42.9,40.2,29.49,SSE,153,3.0,14.0,90,0.00,,,0.00,VWS V14.01,2013-11-16 14:50:00,
2013-11-16 08:55:00,43.1,40.1,29.49,SE,142,9.0,14.0,89,0.00,,,0.00,VWS V14.01,2013-11-16 14:55:00,
2013-11-16 09:00:00,43.2,40.2,29.48,SSE,153,2.0,15.0,89,0.00,,,0.00,VWS V14.01,2013-11-16 15:00:00,
2013-11-16 09:06:00,43.3,40.6,29.49,SE,145,4.0,12.0,90,0.00,,,0.00,VWS V14.01,2013-11-16 15:06:00,
2013-11-16 09:11:00,43.4,40.4,29.48,SSW,202,5.0,16.0,89,0.00,,,0.00,VWS V14.01,2013-11-16 15:11:00,
2013-11-16 09:16:00,43.5,40.5,29.48,SSE,165,5.0,16.0,89,0.00,,,0.00,VWS V14.01,2013-11-16 15:16:00,
2013-11-16 09:21:00,43.6,40.6,29.48,SSE,165,2.0,16.0,89,0.00,,,0.00,VWS V14.01,2013-11-16 15:21:00,
2013-11-16 09:26:00,43.6,40.6,29.48,SSE,161,2.0,16.0,89,0.00,,,0.00,VWS V14.01,2013-11-16 15:26:00,
2013-11-16 09:30:00,43.7,40.7,29.48,SSE,151,10.0,17.0,89,0.00,,,0.00,VWS V14.01,2013-11-16 15:30:00,
2013-11-16 09:31:00,43.7,40.7,29.48,SE,138,9.0,10.0,89,0.00,,,0.00,VWS V14.01,2013-11-16 15:31:00,
2013-11-16 09:35:00,43.7,40.7,29.48,SSW,211,5.0,11.0,89,0.00,,,0.00,VWS V14.01,2013-11-16 15:35:00,
2013-11-16 09:40:00,43.7,40.7,29.48,SE,132,5.0,16.0,89,0.00,,,0.00,VWS V14.01,2013-11-16 15:40:00,
2013-11-16 09:45:00,43.8,40.8,29.48,SW,217,3.0,17.0,89,0.00,,,0.00,VWS V14.01,2013-11-16 15:45:00,
2013-11-16 09:50:00,44.0,41.0,29.48,South,169,5.0,17.0,89,0.00,,,0.00,VWS V14.01,2013-11-16 15:50:00,
2013-11-16 09:55:00,44.0,41.0,29.48,SSW,205,2.0,17.0,89,0.00,,,0.00,VWS V14.01,2013-11-16 15:55:00,
2013-11-16 10:00:00,44.1,41.1,29.48,SE,135,5.0,5.0,89,0.00,,,0.00,VWS V14.01,2013-11-16 16:00:00,
2013-11-16 10:05:00,44.2,41.2,29.48,SSE,150,4.0,11.0,89,0.00,,,0.00,VWS V14.01,2013-11-16 16:05:00,
2013-11-16 10:10:00,44.2,41.5,29.48,SE,134,5.0,11.0,90,0.00,,,0.00,VWS V14.01,2013-11-16 16:10:00,
2013-11-16 10:15:00,44.3,41.6,29.49,SSW,207,3.0,11.0,90,0.00,,,0.00,VWS V14.01,2013-11-16 16:15:00,
2013-11-16 10:20:00,44.3,41.6,29.49,South,190,3.0,11.0,90,0.00,,,0.00,VWS V14.01,2013-11-16 16:20:00,
2013-11-16 10:25:00,44.3,41.6,29.48,SSW,202,4.0,11.0,90,0.00,,,0.00,VWS V14.01,2013-11-16 16:25:00,
2013-11-16 10:30:00,44.4,41.7,29.48,SSE,151,6.0,8.0,90,0.00,,,0.00,VWS V14.01,2013-11-16 16:30:00,
2013-11-16 10:35:00,44.4,41.7,29.48,SE,125,4.0,10.0,90,0.00,,,0.00,VWS V14.01,2013-11-16 16:35:00,
2013-11-16 10:40:00,44.5,41.8,29.49,South,184,5.0,13.0,90,0.00,,,0.00,VWS V14.01,2013-11-16 16:40:00,
2013-11-16 10:45:00,44.5,41.8,29.48,SE,141,5.0,13.0,90,0.00,,,0.00,VWS V14.01,2013-11-16 16:45:00,
2013-11-16 10:50:00,44.5,41.8,29.48,SSE,152,13.0,13.0,90,0.00,,,0.00,VWS V14.01,2013-11-16 16:50:00,
2013-11-16 10:55:00,44.6,41.8,29.48,SSW,198,9.0,13.0,90,0.00,,,0.00,VWS V14.01,2013-11-16 16:55:00,
2013-11-16 11:00:00,44.6,41.8,29.48,SSE,167,4.0,13.0,90,0.00,,,0.00,VWS V14.01,2013-11-16 17:00:00,
2013-11-16 11:01:00,44.6,41.8,29.48,South,180,3.0,4.0,90,0.00,,,0.00,VWS V14.01,2013-11-16 17:01:00,
2013-11-16 11:06:00,44.7,42.0,29.47,SSE,148,4.0,8.0,90,0.00,,,0.00,VWS V14.01,2013-11-16 17:06:00,
2013-11-16 11:11:00,44.8,42.0,29.47,SSE,153,5.0,9.0,90,0.00,,,0.00,VWS V14.01,2013-11-16 17:11:00,
2013-11-16 11:16:00,44.8,42.0,29.47,SSE,147,4.0,12.0,90,0.00,,,0.00,VWS V14.01,2013-11-16 17:16:00,
2013-11-16 11:21:00,44.9,42.2,29.46,SSE,158,2.0,12.0,90,0.00,,,0.00,VWS V14.01,2013-11-16 17:21:00,
2013-11-16 11:26:00,45.0,42.2,29.46,SE,142,6.0,12.0,90,0.00,,,0.00,VWS V14.01,2013-11-16 17:26:00,
2013-11-16 11:30:00,45.0,42.2,29.46,SE,135,9.0,13.0,90,0.00,,,0.00,VWS V14.01,2013-11-16 17:30:00,
2013-11-16 11:31:00,45.0,42.2,29.46,South,181,3.0,9.0,90,0.00,,,0.00,VWS V14.01,2013-11-16 17:31:00,
2013-11-16 11:36:00,44.9,42.4,29.45,SSE,159,8.0,13.0,91,0.00,,,0.00,VWS V14.01,2013-11-16 17:36:00,
2013-11-16 11:41:00,44.8,42.3,29.45,SE,128,7.0,13.0,91,0.00,,,0.00,VWS V14.01,2013-11-16 17:41:00,
2013-11-16 11:46:00,44.6,42.4,29.44,SE,144,6.0,13.0,92,0.00,,,0.00,VWS V14.01,2013-11-16 17:46:00,
2013-11-16 11:51:00,44.5,42.6,29.44,SE,145,6.0,13.0,93,0.00,,,0.00,VWS V14.01,2013-11-16 17:51:00,
2013-11-16 11:56:00,44.3,42.4,29.43,SE,130,8.0,13.0,93,0.00,,,0.00,VWS V14.01,2013-11-16 17:56:00,
2013-11-16 12:01:00,44.3,42.4,29.43,SE,131,8.0,10.0,93,0.00,,,0.00,VWS V14.01,2013-11-16 18:01:00,
2013-11-16 12:06:00,44.2,42.6,29.43,SE,134,5.0,11.0,94,0.00,,,0.00,VWS V14.01,2013-11-16 18:06:00,
2013-11-16 12:11:00,44.1,42.5,29.43,SE,138,5.0,11.0,94,0.00,,,0.00,VWS V14.01,2013-11-16 18:11:00,
2013-11-16 12:16:00,44.1,42.8,29.42,SE,132,5.0,11.0,95,0.00,,,0.00,VWS V14.01,2013-11-16 18:16:00,
2013-11-16 12:21:00,44.0,42.7,29.42,SE,141,8.0,11.0,95,0.00,,,0.00,VWS V14.01,2013-11-16 18:21:00,
2013-11-16 12:26:00,43.9,42.6,29.42,SE,133,4.0,11.0,95,0.00,,,0.00,VWS V14.01,2013-11-16 18:26:00,
2013-11-16 12:30:00,43.8,42.7,29.42,SE,128,5.0,6.0,96,0.00,,,0.00,VWS V14.01,2013-11-16 18:30:00,
2013-11-16 12:35:00,43.8,42.7,29.41,ESE,121,5.0,8.0,96,0.00,,,0.00,VWS V14.01,2013-11-16 18:35:00,
2013-11-16 12:40:00,43.7,42.6,29.40,SE,133,7.0,9.0,96,0.00,,,0.00,VWS V14.01,2013-11-16 18:40:00,
2013-11-16 12:45:00,43.7,42.6,29.40,ESE,121,4.0,10.0,96,0.00,,,0.00,VWS V14.01,2013-11-16 18:45:00,
2013-11-16 12:50:00,43.7,42.6,29.40,SSE,147,4.0,10.0,96,0.00,,,0.00,VWS V14.01,2013-11-16 18:50:00,
2013-11-16 12:55:00,43.6,42.5,29.40,SE,131,5.0,10.0,96,0.00,,,0.00,VWS V14.01,2013-11-16 18:55:00,
2013-11-16 13:01:00,43.6,42.5,29.39,SE,136,7.0,11.0,96,0.00,,,0.00,VWS V14.01,2013-11-16 19:01:00,
2013-11-16 13:05:00,43.6,42.5,29.38,ESE,123,5.0,10.0,96,0.00,,,0.00,VWS V14.01,2013-11-16 19:05:00,
2013-11-16 13:11:00,43.6,42.8,29.38,ESE,121,5.0,10.0,97,0.00,,,0.00,VWS V14.01,2013-11-16 19:11:00,
2013-11-16 13:16:00,43.6,42.8,29.37,ESE,115,4.0,10.0,97,0.00,,,0.00,VWS V14.01,2013-11-16 19:16:00,
2013-11-16 13:21:00,43.6,42.8,29.37,SE,136,5.0,10.0,97,0.00,,,0.00,VWS V14.01,2013-11-16 19:21:00,
2013-11-16 13:25:00,43.7,42.9,29.37,SE,127,5.0,10.0,97,0.00,,,0.00,VWS V14.01,2013-11-16 19:25:00,
2013-11-16 13:30:00,43.7,42.9,29.37,SE,140,8.0,10.0,97,0.00,,,0.00,VWS V14.01,2013-11-16 19:30:00,
2013-11-16 13:35:00,43.7,42.9,29.37,SE,131,5.0,10.0,97,0.00,,,0.00,VWS V14.01,2013-11-16 19:35:00,
2013-11-16 13:40:00,43.7,42.9,29.37,SE,134,5.0,10.0,97,0.01,,,0.01,VWS V14.01,2013-11-16 19:40:00,
2013-11-16 13:45:00,43.7,42.9,29.37,ESE,115,8.0,10.0,97,0.01,,,0.01,VWS V14.01,2013-11-16 19:45:00,
2013-11-16 13:50:00,43.7,42.9,29.36,ESE,115,6.0,10.0,97,0.01,,,0.01,VWS V14.01,2013-11-16 19:50:00,
2013-11-16 13:55:00,43.7,42.9,29.36,ESE,123,5.0,11.0,97,0.01,,,0.01,VWS V14.01,2013-11-16 19:55:00,
2013-11-16 14:00:00,43.6,42.8,29.36,ESE,113,9.0,9.0,97,0.01,,,0.01,VWS V14.01,2013-11-16 20:00:00,
2013-11-16 14:05:00,43.6,42.8,29.36,ESE,123,14.0,14.0,97,0.01,,,0.01,VWS V14.01,2013-11-16 20:05:00,
2013-11-16 14:10:00,43.4,42.6,29.35,ESE,123,5.0,14.0,97,0.02,,,0.02,VWS V14.01,2013-11-16 20:10:00,
2013-11-16 14:15:00,43.4,42.3,29.35,SE,127,9.0,14.0,96,0.03,,,0.03,VWS V14.01,2013-11-16 20:15:00,
2013-11-16 14:20:00,43.3,42.2,29.34,SE,138,12.0,15.0,96,0.04,,,0.04,VWS V14.01,2013-11-16 20:20:00,
2013-11-16 14:25:00,43.3,42.2,29.34,SE,132,9.0,15.0,96,0.05,,,0.05,VWS V14.01,2013-11-16 20:25:00,
2013-11-16 14:30:00,43.3,42.2,29.34,ESE,111,8.0,15.0,96,0.05,,,0.05,VWS V14.01,2013-11-16 20:30:00,
2013-11-16 14:35:00,43.3,42.2,29.35,SE,132,4.0,10.0,96,0.06,,,0.06,VWS V14.01,2013-11-16 20:35:00,
2013-11-16 14:40:00,43.2,42.1,29.34,ESE,122,4.0,10.0,96,0.07,,,0.07,VWS V14.01,2013-11-16 20:40:00,
2013-11-16 14:45:00,43.2,42.4,29.34,ESE,115,10.0,10.0,97,0.09,,,0.09,VWS V14.01,2013-11-16 20:45:00,
2013-11-16 14:50:00,43.1,42.3,29.33,ESE,110,8.0,10.0,97,0.09,,,0.09,VWS V14.01,2013-11-16 20:50:00,
2013-11-16 14:55:00,43.1,42.3,29.33,SE,124,4.0,12.0,97,0.10,,,0.10,VWS V14.01,2013-11-16 20:55:00,
2013-11-16 15:00:00,43.1,42.3,29.33,ESE,113,8.0,12.0,97,0.11,,,0.11,VWS V14.01,2013-11-16 21:00:00,
2013-11-16 15:05:00,43.1,42.3,29.33,ESE,115,7.0,11.0,97,0.10,,,0.11,VWS V14.01,2013-11-16 21:05:00,
2013-11-16 15:10:00,43.1,42.3,29.32,ESE,106,6.0,11.0,97,0.10,,,0.11,VWS V14.01,2013-11-16 21:10:00,
2013-11-16 15:15:00,43.1,42.3,29.32,ESE,116,10.0,11.0,97,0.10,,,0.11,VWS V14.01,2013-11-16 21:15:00,
2013-11-16 15:20:00,43.0,42.2,29.32,SE,127,5.0,11.0,97,0.10,,,0.11,VWS V14.01,2013-11-16 21:20:00,
2013-11-16 15:25:00,43.0,42.2,29.32,ESE,113,6.0,11.0,97,0.10,,,0.11,VWS V14.01,2013-11-16 21:25:00,
2013-11-16 15:30:00,43.0,42.2,29.31,ESE,111,4.0,4.0,97,0.06,,,0.11,VWS V14.01,2013-11-16 21:30:00,
2013-11-16 15:35:00,43.0,42.2,29.31,ESE,115,10.0,11.0,97,0.07,,,0.12,VWS V14.01,2013-11-16 21:35:00,
2013-11-16 15:40:00,43.0,42.2,29.31,East,99,4.0,11.0,97,0.07,,,0.12,VWS V14.01,2013-11-16 21:40:00,
2013-11-16 15:45:00,42.9,42.1,29.31,ESE,116,7.0,11.0,97,0.07,,,0.12,VWS V14.01,2013-11-16 21:45:00,
2013-11-16 15:50:00,42.9,42.1,29.31,ESE,111,6.0,11.0,97,0.07,,,0.12,VWS V14.01,2013-11-16 21:50:00,
2013-11-16 15:55:00,42.8,42.0,29.30,ESE,107,4.0,11.0,97,0.07,,,0.12,VWS V14.01,2013-11-16 21:55:00,
2013-11-16 16:00:00,42.8,42.0,29.30,ESE,111,4.0,4.0,97,0.01,,,0.12,VWS V14.01,2013-11-16 22:00:00,
2013-11-16 16:05:00,42.7,41.9,29.30,ESE,105,6.0,9.0,97,0.01,,,0.12,VWS V14.01,2013-11-16 22:05:00,
2013-11-16 16:10:00,42.7,41.9,29.30,East,96,6.0,9.0,97,0.02,,,0.13,VWS V14.01,2013-11-16 22:10:00,
2013-11-16 16:15:00,42.6,41.8,29.30,ESE,109,4.0,9.0,97,0.02,,,0.13,VWS V14.01,2013-11-16 22:15:00,
2013-11-16 16:20:00,42.5,41.7,29.29,ESE,106,6.0,9.0,97,0.02,,,0.13,VWS V14.01,2013-11-16 22:20:00,
2013-11-16 16:25:00,42.5,41.7,29.29,ESE,103,4.0,9.0,97,0.02,,,0.13,VWS V14.01,2013-11-16 22:25:00,
2013-11-16 16:30:00,42.5,41.7,29.29,ESE,107,3.0,4.0,97,0.03,,,0.14,VWS V14.01,2013-11-16 22:30:00,
2013-11-16 16:35:00,42.4,41.6,29.29,ESE,109,2.0,6.0,97,0.04,,,0.15,VWS V14.01,2013-11-16 22:35:00,
2013-11-16 16:40:00,42.4,41.6,29.28,East,90,7.0,9.0,97,0.05,,,0.16,VWS V14.01,2013-11-16 22:40:00,
2013-11-16 16:45:00,42.4,41.6,29.28,East,98,4.0,9.0,97,0.06,,,0.17,VWS V14.01,2013-11-16 22:45:00,
2013-11-16 16:50:00,42.4,41.6,29.27,East,94,6.0,9.0,97,0.07,,,0.18,VWS V14.01,2013-11-16 22:50:00,
2013-11-16 16:55:00,42.3,41.5,29.27,East,88,4.0,9.0,97,0.07,,,0.18,VWS V14.01,2013-11-16 22:55:00,
2013-11-16 17:00:00,42.3,41.5,29.27,ENE,64,5.0,12.0,97,0.07,,,0.18,VWS V14.01,2013-11-16 23:00:00,
2013-11-16 17:05:00,42.2,41.4,29.28,East,80,4.0,9.0,97,0.06,,,0.18,VWS V14.01,2013-11-16 23:05:00,
2013-11-16 17:10:00,42.2,41.4,29.28,ESE,118,3.0,9.0,97,0.06,,,0.18,VWS V14.01,2013-11-16 23:10:00,
2013-11-16 17:15:00,42.2,41.4,29.27,ENE,58,6.0,9.0,97,0.06,,,0.18,VWS V14.01,2013-11-16 23:15:00,
2013-11-16 17:20:00,42.2,41.4,29.28,East,79,3.0,9.0,97,0.06,,,0.18,VWS V14.01,2013-11-16 23:20:00,
2013-11-16 17:25:00,42.2,41.4,29.28,NE,49,6.0,9.0,97,0.06,,,0.18,VWS V14.01,2013-11-16 23:25:00,
2013-11-16 17:30:00,42.2,41.4,29.28,ENE,61,5.0,9.0,97,0.06,,,0.18,VWS V14.01,2013-11-16 23:30:00,
2013-11-16 17:35:00,42.1,41.3,29.28,ENE,67,4.0,6.0,97,0.04,,,0.18,VWS V14.01,2013-11-16 23:35:00,
2013-11-16 17:40:00,42.0,41.2,29.28,ENE,68,2.0,6.0,97,0.04,,,0.18,VWS V14.01,2013-11-16 23:40:00,
2013-11-16 17:45:00,42.1,41.3,29.27,ENE,67,4.0,10.0,97,0.05,,,0.19,VWS V14.01,2013-11-16 23:45:00,
2013-11-16 17:50:00,42.1,41.3,29.28,NE,56,7.0,10.0,97,0.05,,,0.19,VWS V14.01,2013-11-16 23:50:00,
2013-11-16 17:55:00,42.1,41.3,29.28,ENE,59,7.0,10.0,97,0.05,,,0.19,VWS V14.01,2013-11-16 23:55:00,
2013-11-16 18:00:00,42.1,41.3,29.27,ENE,64,4.0,10.0,97,0.06,,,0.20,VWS V14.01,2013-11-17 00:00:00,
2013-11-16 18:05:00,42.1,41.3,29.27,East,90,7.0,8.0,97,0.02,,,0.20,VWS V14.01,2013-11-17 00:05:00,
2013-11-16 18:10:00,42.1,41.3,29.27,East,95,7.0,8.0,97,0.02,,,0.20,VWS V14.01,2013-11-17 00:10:00,
2013-11-16 18:15:00,42.1,41.3,29.27,East,101,4.0,8.0,97,0.02,,,0.20,VWS V14.01,2013-11-17 00:15:00,
2013-11-16 18:20:00,42.1,41.3,29.27,East,80,5.0,8.0,97,0.02,,,0.20,VWS V14.01,2013-11-17 00:20:00,
2013-11-16 18:25:00,42.1,41.3,29.27,East,90,6.0,9.0,97,0.02,,,0.20,VWS V14.01,2013-11-17 00:25:00,
2013-11-16 18:30:00,42.1,41.3,29.27,ENE,71,4.0,9.0,97,0.02,,,0.20,VWS V14.01,2013-11-17 00:30:00,
2013-11-16 18:35:00,42.1,41.6,29.28,NE,46,4.0,6.0,98,0.02,,,0.20,VWS V14.01,2013-11-17 00:35:00,
2013-11-16 18:40:00,42.1,41.6,29.28,ENE,59,2.0,6.0,98,0.02,,,0.20,VWS V14.01,2013-11-17 00:40:00,
2013-11-16 18:45:00,42.0,41.2,29.28,NE,51,3.0,6.0,97,0.02,,,0.20,VWS V14.01,2013-11-17 00:45:00,
2013-11-16 18:50:00,42.0,41.2,29.28,NE,43,3.0,6.0,97,0.02,,,0.20,VWS V14.01,2013-11-17 00:50:00,
2013-11-16 18:55:00,42.0,41.2,29.28,NE,44,2.0,6.0,97,0.02,,,0.20,VWS V14.01,2013-11-17 00:55:00,
2013-11-16 19:00:00,42.0,41.2,29.28,NNE,28,3.0,4.0,97,0.00,,,0.20,VWS V14.01,2013-11-17 01:00:00,
2013-11-16 19:05:00,42.0,41.5,29.28,NNE,14,3.0,5.0,98,0.00,,,0.20,VWS V14.01,2013-11-17 01:05:00,
2013-11-16 19:10:00,41.9,41.4,29.28,NNE,24,2.0,5.0,98,0.00,,,0.20,VWS V14.01,2013-11-17 01:10:00,
2013-11-16 19:15:00,41.9,41.4,29.27,NNE,24,3.0,5.0,98,0.00,,,0.20,VWS V14.01,2013-11-17 01:15:00,
2013-11-16 19:20:00,41.9,41.4,29.27,NE,49,3.0,5.0,98,0.00,,,0.20,VWS V14.01,2013-11-17 01:20:00,
2013-11-16 19:25:00,41.9,41.4,29.27,NE,44,3.0,5.0,98,0.00,,,0.20,VWS V14.01,2013-11-17 01:25:00,
2013-11-16 19:30:00,41.9,41.4,29.27,ENE,57,2.0,2.0,98,0.00,,,0.20,VWS V14.01,2013-11-17 01:30:00,
2013-11-16 19:35:00,42.0,41.5,29.27,ENE,65,4.0,4.0,98,0.00,,,0.20,VWS V14.01,2013-11-17 01:35:00,
2013-11-16 19:40:00,42.0,41.5,29.27,ENE,69,2.0,4.0,98,0.00,,,0.20,VWS V14.01,2013-11-17 01:40:00,
2013-11-16 19:45:00,42.1,41.6,29.27,East,88,2.0,5.0,98,0.00,,,0.20,VWS V14.01,2013-11-17 01:45:00,
2013-11-16 19:50:00,42.2,41.7,29.27,ESE,106,2.0,5.0,98,0.00,,,0.20,VWS V14.01,2013-11-17 01:50:00,
2013-11-16 19:55:00,42.2,41.7,29.27,East,88,4.0,5.0,98,0.00,,,0.20,VWS V14.01,2013-11-17 01:55:00,
2013-11-16 20:00:00,42.2,41.7,29.27,East,90,6.0,7.0,98,0.00,,,0.20,VWS V14.01,2013-11-17 02:00:00,
2013-11-16 20:05:00,42.2,41.7,29.27,ENE,76,4.0,6.0,98,0.00,,,0.20,VWS V14.01,2013-11-17 02:05:00,
2013-11-16 20:10:00,42.2,41.7,29.27,East,84,3.0,6.0,98,0.00,,,0.20,VWS V14.01,2013-11-17 02:10:00,
2013-11-16 20:15:00,42.2,41.7,29.26,ENE,76,2.0,6.0,98,0.00,,,0.20,VWS V14.01,2013-11-17 02:15:00,
2013-11-16 20:20:00,42.2,41.7,29.26,ENE,69,2.0,6.0,98,0.00,,,0.20,VWS V14.01,2013-11-17 02:20:00,
2013-11-16 20:25:00,42.2,41.7,29.26,East,84,1.0,6.0,98,0.00,,,0.20,VWS V14.01,2013-11-17 02:25:00,
2013-11-16 20:30:00,42.2,41.7,29.26,East,80,3.0,3.0,98,0.00,,,0.20,VWS V14.01,2013-11-17 02:30:00,
2013-11-16 20:35:00,42.3,41.8,29.27,ENE,77,1.0,4.0,98,0.00,,,0.20,VWS V14.01,2013-11-17 02:35:00,
2013-11-16 20:40:00,42.3,41.8,29.27,ENE,77,2.0,4.0,98,0.00,,,0.20,VWS V14.01,2013-11-17 02:40:00,
2013-11-16 20:45:00,42.2,41.7,29.27,ENE,57,1.0,4.0,98,0.00,,,0.20,VWS V14.01,2013-11-17 02:45:00,
2013-11-16 20:50:00,42.2,41.7,29.27,ENE,57,2.0,4.0,98,0.00,,,0.20,VWS V14.01,2013-11-17 02:50:00,
2013-11-16 20:55:00,42.1,41.6,29.27,ENE,57,1.0,4.0,98,0.00,,,0.20,VWS V14.01,2013-11-17 02:55:00,
2013-11-16 21:00:00,42.1,41.6,29.27,ENE,57,1.0,4.0,98,0.00,,,0.20,VWS V14.01,2013-11-17 03:00:00,
2013-11-16 21:01:00,42.1,41.6,29.27,ENE,57,2.0,2.0,98,0.00,,,0.20,VWS V14.01,2013-11-17 03:01:00,
2013-11-16 21:06:00,42.0,41.5,29.27,ENE,62,3.0,3.0,98,0.00,,,0.20,VWS V14.01,2013-11-17 03:06:00,
2013-11-16 21:11:00,42.0,41.5,29.27,ENE,63,2.0,3.0,98,0.00,,,0.20,VWS V14.01,2013-11-17 03:11:00,
2013-11-16 21:16:00,42.1,41.6,29.27,ENE,63,1.0,3.0,98,0.00,,,0.20,VWS V14.01,2013-11-17 03:16:00,
2013-11-16 21:21:00,42.0,41.5,29.27,ENE,63,1.0,3.0,98,0.00,,,0.20,VWS V14.01,2013-11-17 03:21:00,
2013-11-16 21:26:00,42.1,41.6,29.27,ENE,63,2.0,3.0,98,0.00,,,0.20,VWS V14.01,2013-11-17 03:26:00,
2013-11-16 21:30:00,42.1,41.6,29.28,ENE,63,1.0,3.0,98,0.00,,,0.20,VWS V14.01,2013-11-17 03:30:00,
2013-11-16 21:31:00,42.1,41.6,29.28,ENE,63,0.0,1.0,98,0.00,,,0.20,VWS V14.01,2013-11-17 03:31:00,
2013-11-16 21:36:00,42.1,41.6,29.28,ENE,63,0.0,1.0,98,0.00,,,0.20,VWS V14.01,2013-11-17 03:36:00,
2013-11-16 21:41:00,42.1,41.6,29.28,ENE,63,0.0,1.0,98,0.00,,,0.20,VWS V14.01,2013-11-17 03:41:00,
2013-11-16 21:46:00,42.0,41.5,29.28,ENE,63,1.0,1.0,98,0.00,,,0.20,VWS V14.01,2013-11-17 03:46:00,
2013-11-16 21:51:00,41.9,41.4,29.28,ENE,63,0.0,2.0,98,0.00,,,0.20,VWS V14.01,2013-11-17 03:51:00,
2013-11-16 21:55:00,41.9,41.4,29.28,ENE,63,1.0,2.0,98,0.00,,,0.20,VWS V14.01,2013-11-17 03:55:00,
2013-11-16 22:00:00,41.9,41.4,29.28,ENE,63,1.0,2.0,98,0.00,,,0.20,VWS V14.01,2013-11-17 04:00:00,
2013-11-16 22:01:00,41.9,41.4,29.28,ENE,63,1.0,1.0,98,0.00,,,0.20,VWS V14.01,2013-11-17 04:01:00,
2013-11-16 22:06:00,41.8,41.3,29.28,ENE,63,0.0,1.0,98,0.00,,,0.20,VWS V14.01,2013-11-17 04:06:00,
2013-11-16 22:11:00,41.8,41.3,29.28,ENE,63,0.0,1.0,98,0.00,,,0.20,VWS V14.01,2013-11-17 04:11:00,
2013-11-16 22:16:00,41.9,41.4,29.28,ENE,63,0.0,1.0,98,0.00,,,0.20,VWS V14.01,2013-11-17 04:16:00,
2013-11-16 22:21:00,41.8,41.3,29.28,ENE,63,0.0,1.0,98,0.00,,,0.20,VWS V14.01,2013-11-17 04:21:00,
2013-11-16 22:26:00,41.8,41.3,29.28,ENE,63,0.0,1.0,98,0.00,,,0.20,VWS V14.01,2013-11-17 04:26:00,
2013-11-16 22:30:00,41.8,41.3,29.28,ENE,63,0.0,1.0,98,0.00,,,0.20,VWS V14.01,2013-11-17 04:30:00,
2013-11-16 22:31:00,41.8,41.3,29.27,ENE,63,0.0,0.0,98,0.00,,,0.20,VWS V14.01,2013-11-17 04:31:00,
2013-11-16 22:36:00,41.8,41.3,29.27,ENE,63,1.0,1.0,98,0.00,,,0.20,VWS V14.01,2013-11-17 04:36:00,
2013-11-16 22:40:00,41.8,41.3,29.27,ENE,63,0.0,1.0,98,0.01,,,0.21,VWS V14.01,2013-11-17 04:40:00,
2013-11-16 22:45:00,41.8,41.3,29.27,ENE,63,0.0,1.0,98,0.01,,,0.21,VWS V14.01,2013-11-17 04:45:00,
2013-11-16 22:50:00,41.8,41.3,29.27,ENE,63,0.0,1.0,98,0.01,,,0.21,VWS V14.01,2013-11-17 04:50:00,
2013-11-16 22:55:00,41.8,41.3,29.28,ENE,63,1.0,1.0,98,0.01,,,0.21,VWS V14.01,2013-11-17 04:55:00,
2013-11-16 23:00:00,41.8,41.3,29.28,ENE,63,1.0,1.0,98,0.01,,,0.21,VWS V14.01,2013-11-17 05:00:00,
2013-11-16 23:01:00,41.8,41.3,29.28,ENE,63,0.0,1.0,98,0.01,,,0.21,VWS V14.01,2013-11-17 05:01:00,
2013-11-16 23:06:00,41.8,41.3,29.28,ENE,63,0.0,1.0,98,0.01,,,0.21,VWS V14.01,2013-11-17 05:06:00,
2013-11-16 23:11:00,41.8,41.3,29.28,ENE,63,0.0,1.0,98,0.01,,,0.21,VWS V14.01,2013-11-17 05:11:00,
2013-11-16 23:16:00,41.8,41.3,29.28,ENE,63,1.0,2.0,98,0.01,,,0.21,VWS V14.01,2013-11-17 05:16:00,
2013-11-16 23:21:00,41.8,41.3,29.28,ENE,63,2.0,2.0,98,0.01,,,0.21,VWS V14.01,2013-11-17 05:21:00,
2013-11-16 23:26:00,41.7,41.2,29.28,ENE,70,1.0,2.0,98,0.01,,,0.21,VWS V14.01,2013-11-17 05:26:00,
2013-11-16 23:30:00,41.8,41.3,29.28,East,87,2.0,2.0,98,0.01,,,0.21,VWS V14.01,2013-11-17 05:30:00,
2013-11-16 23:31:00,41.8,41.3,29.28,East,87,2.0,2.0,98,0.01,,,0.21,VWS V14.01,2013-11-17 05:31:00,
2013-11-16 23:36:00,41.8,41.3,29.28,ESE,104,2.0,3.0,98,0.01,,,0.21,VWS V14.01,2013-11-17 05:36:00,
2013-11-16 23:41:00,41.8,41.5,29.28,ESE,104,0.0,3.0,99,0.01,,,0.21,VWS V14.01,2013-11-17 05:41:00,
2013-11-16 23:46:00,41.8,41.5,29.28,ESE,104,1.0,3.0,99,0.01,,,0.21,VWS V14.01,2013-11-17 05:46:00,
2013-11-16 23:51:00,41.8,41.5,29.28,ESE,104,2.0,3.0,99,0.01,,,0.21,VWS V14.01,2013-11-17 05:51:00,
2013-11-16 23:56:00,41.8,41.5,29.28,SE,125,2.0,3.0,99,0.01,,,0.21,VWS V14.01,2013-11-17 05:56:00,